TimeMST,TemperatureF,Dew PointF,Humidity,Sea Level PressureIn,VisibilityMPH,Wind Direction,Wind SpeedMPH,Gust SpeedMPH,PrecipitationIn,Events,Conditions,WindDirDegrees,DateUTC
12:15 AM,32.0,28.4,87,30.17,10.0,West,4.6,-,N/A,,Overcast,270,2013-11-25 07:15:00
12:35 AM,32.0,28.4,87,30.17,10.0,WSW,5.8,-,N/A,,Overcast,240,2013-11-25 07:35:00
12:55 AM,31.8,28.0,86,30.17,10.0,West,3.5,-,N/A,,Overcast,260,2013-11-25 07:55:00
1:15 AM,32.0,28.4,87,30.16,10.0,WSW,6.9,-,N/A,,Overcast,240,2013-11-25 08:15:00
1:35 AM,31.5,28.4,88,30.16,10.0,SW,6.9,-,N/A,,Overcast,230,2013-11-25 08:35:00
1:55 AM,31.1,28.2,89,30.15,10.0,WSW,6.9,-,N/A,,Overcast,250,2013-11-25 08:55:00
2:15 AM,30.9,28.2,90,30.15,10.0,West,5.8,-,N/A,,Overcast,260,2013-11-25 09:15:00
2:35 AM,30.7,28.0,90,30.15,10.0,West,5.8,-,N/A,,Overcast,260,2013-11-25 09:35:00
2:55 AM,30.6,28.2,91,30.15,10.0,West,3.5,-,N/A,,Overcast,280,2013-11-25 09:55:00
3:15 AM,30.2,28.2,92,30.15,10.0,WSW,4.6,-,N/A,,Overcast,250,2013-11-25 10:15:00
3:35 AM,30.2,28.2,92,30.13,10.0,WSW,4.6,-,N/A,,Overcast,250,2013-11-25 10:35:00
3:55 AM,30.2,28.2,92,30.13,10.0,West,4.6,-,N/A,,Overcast,270,2013-11-25 10:55:00
4:15 AM,30.2,28.2,92,30.13,10.0,WSW,6.9,-,N/A,,Overcast,240,2013-11-25 11:15:00
4:35 AM,30.2,28.4,93,30.13,10.0,West,5.8,-,N/A,,Overcast,270,2013-11-25 11:35:00
4:55 AM,30.6,28.4,92,30.13,10.0,WNW,6.9,-,N/A,,Overcast,290,2013-11-25 11:55:00
5:15 AM,30.7,28.8,92,30.13,10.0,West,4.6,-,N/A,,Overcast,280,2013-11-25 12:15:00
5:35 AM,30.7,28.6,92,30.13,10.0,West,5.8,-,N/A,,Overcast,270,2013-11-25 12:35:00
5:55 AM,30.4,28.2,92,30.13,10.0,WSW,4.6,-,N/A,,Overcast,240,2013-11-25 12:55:00
6:15 AM,30.9,28.6,91,30.14,10.0,WSW,5.8,-,N/A,,Overcast,240,2013-11-25 13:15:00
6:35 AM,31.1,28.8,91,30.14,10.0,West,5.8,-,N/A,,Overcast,260,2013-11-25 13:35:00
6:55 AM,30.9,28.4,90,30.14,10.0,West,4.6,-,N/A,,Overcast,260,2013-11-25 13:55:00
7:15 AM,31.1,28.8,91,30.15,10.0,West,4.6,-,N/A,,Overcast,260,2013-11-25 14:15:00
7:35 AM,31.1,28.8,91,30.15,10.0,West,6.9,-,N/A,,Overcast,270,2013-11-25 14:35:00
7:55 AM,30.6,28.6,92,30.16,10.0,WSW,9.2,-,N/A,,Overcast,250,2013-11-25 14:55:00
8:15 AM,30.6,28.8,93,30.16,10.0,WSW,6.9,-,N/A,,Overcast,250,2013-11-25 15:15:00
8:35 AM,30.0,28.4,94,30.16,10.0,West,11.5,-,N/A,,Overcast,270,2013-11-25 15:35:00
8:55 AM,29.8,28.6,95,30.17,7.0,West,8.1,-,N/A,,Overcast,270,2013-11-25 15:55:00
9:15 AM,30.0,28.6,94,30.18,10.0,West,9.2,-,N/A,,Overcast,270,2013-11-25 16:15:00
9:35 AM,30.2,29.1,96,30.19,7.0,West,10.4,-,N/A,,Overcast,270,2013-11-25 16:35:00
9:55 AM,30.4,29.1,95,30.19,10.0,WNW,6.9,-,N/A,,Overcast,290,2013-11-25 16:55:00
10:15 AM,31.3,29.7,94,30.20,10.0,WNW,4.6,-,N/A,,Overcast,290,2013-11-25 17:15:00
10:35 AM,31.6,29.7,92,30.20,10.0,WNW,3.5,-,N/A,,Overcast,300,2013-11-25 17:35:00
10:55 AM,32.0,29.8,92,30.20,10.0,Calm,Calm,-,N/A,,Overcast,0,2013-11-25 17:55:00
11:15 AM,32.2,30.0,92,30.20,10.0,NNW,4.6,-,N/A,,Overcast,330,2013-11-25 18:15:00
11:35 AM,33.3,30.9,91,30.19,10.0,WNW,5.8,-,N/A,,Overcast,290,2013-11-25 18:35:00
11:55 AM,33.6,30.9,90,30.19,10.0,NNW,3.5,-,N/A,,Overcast,330,2013-11-25 18:55:00
12:15 PM,34.2,30.9,88,30.18,10.0,NNW,4.6,-,N/A,,Overcast,330,2013-11-25 19:15:00
12:35 PM,35.1,30.9,85,30.17,10.0,NNW,4.6,-,N/A,,Overcast,340,2013-11-25 19:35:00
12:55 PM,36.1,31.5,83,30.17,10.0,North,3.5,-,N/A,,Overcast,350,2013-11-25 19:55:00
1:15 PM,37.9,32.0,79,30.16,10.0,North,5.8,-,N/A,,Mostly Cloudy,10,2013-11-25 20:15:00
1:35 PM,39.6,32.9,77,30.16,10.0,North,5.8,-,N/A,,Scattered Clouds,10,2013-11-25 20:35:00
1:55 PM,40.1,33.3,77,30.16,10.0,North,3.5,-,N/A,,Scattered Clouds,350,2013-11-25 20:55:00
2:15 PM,41.0,32.7,72,30.16,10.0,NNE,6.9,-,N/A,,Clear,30,2013-11-25 21:15:00
2:35 PM,40.8,32.7,73,30.17,10.0,NNE,8.1,-,N/A,,Clear,20,2013-11-25 21:35:00
2:55 PM,42.1,34.0,73,30.17,10.0,NW,8.1,-,N/A,,Clear,310,2013-11-25 21:55:00
3:15 PM,42.6,33.8,71,30.17,10.0,NW,6.9,-,N/A,,Clear,320,2013-11-25 22:15:00
3:35 PM,42.6,33.3,69,30.17,10.0,NNW,10.4,-,N/A,,Clear,340,2013-11-25 22:35:00
3:55 PM,42.3,32.9,69,30.18,10.0,NNW,10.4,-,N/A,,Clear,340,2013-11-25 22:55:00
4:15 PM,42.4,32.9,69,30.18,10.0,NNW,8.1,-,N/A,,Clear,330,2013-11-25 23:15:00
4:35 PM,41.7,32.5,70,30.19,10.0,NNW,9.2,-,N/A,,Clear,340,2013-11-25 23:35:00
4:55 PM,40.5,32.5,73,30.19,10.0,NNW,8.1,-,N/A,,Clear,340,2013-11-25 23:55:00
5:15 PM,38.8,32.4,78,30.20,10.0,North,6.9,-,N/A,,Clear,360,2013-11-26 00:15:00
5:35 PM,37.9,32.0,79,30.21,10.0,NNW,8.1,-,N/A,,Clear,340,2013-11-26 00:35:00
5:55 PM,37.2,32.0,81,30.21,10.0,NNW,9.2,-,N/A,,Clear,340,2013-11-26 00:55:00
6:15 PM,37.0,31.8,81,30.21,10.0,NNW,8.1,-,N/A,,Clear,330,2013-11-26 01:15:00
6:35 PM,36.1,31.3,83,30.22,10.0,Calm,Calm,-,N/A,,Clear,0,2013-11-26 01:35:00
6:55 PM,34.7,30.9,86,30.23,10.0,ENE,3.5,-,N/A,,Clear,60,2013-11-26 01:55:00
7:15 PM,35.2,30.9,84,30.24,10.0,WNW,4.6,-,N/A,,Clear,300,2013-11-26 02:15:00
7:35 PM,35.2,30.9,84,30.25,10.0,West,5.8,-,N/A,,Clear,270,2013-11-26 02:35:00
7:55 PM,33.6,30.7,89,30.26,10.0,Calm,Calm,-,N/A,,Clear,0,2013-11-26 02:55:00
8:15 PM,32.9,30.2,90,30.25,10.0,NW,3.5,-,N/A,,Clear,310,2013-11-26 03:15:00
8:35 PM,32.4,30.2,92,30.26,10.0,WNW,6.9,-,N/A,,Clear,290,2013-11-26 03:35:00
8:55 PM,32.0,30.0,92,30.27,10.0,WNW,8.1,-,N/A,,Clear,300,2013-11-26 03:55:00
9:15 PM,33.1,30.7,91,30.28,10.0,WNW,6.9,-,N/A,,Clear,300,2013-11-26 04:15:00
9:35 PM,32.4,30.2,92,30.29,10.0,NW,5.8,-,N/A,,Clear,320,2013-11-26 04:35:00
9:55 PM,32.4,30.0,91,30.29,10.0,NW,5.8,-,N/A,,Clear,320,2013-11-26 04:55:00
10:15 PM,31.8,29.7,92,30.29,10.0,NW,5.8,-,N/A,,Clear,320,2013-11-26 05:15:00
10:35 PM,32.0,30.0,92,30.30,10.0,NW,4.6,-,N/A,,Clear,320,2013-11-26 05:35:00
10:55 PM,33.1,31.1,92,30.30,10.0,NNW,9.2,-,N/A,,Clear,340,2013-11-26 05:55:00
11:15 PM,34.2,31.1,89,30.30,10.0,NNW,9.2,-,N/A,,Clear,340,2013-11-26 06:15:00
11:35 PM,31.5,29.3,92,30.31,10.0,East,4.6,-,N/A,,Clear,100,2013-11-26 06:35:00
11:55 PM,29.3,28.4,96,30.31,7.0,WSW,4.6,-,N/A,,Clear,240,2013-11-26 06:55:00